Wind_Speed
26 24 21 20 18 16 13 10 8 8 8 9 10 10 11 13 13 14 14 14 14 13 14 15 15 15 15 16 16 16 16 16 16 15 14 14 14 14 14 14 13 13 13 12 12 12 12 12 12 12 12 12 12 11 9 8 8 8 8 9 9 8 6 7 6 5 5 7 8 8 10 11 11 10 11 12 13 13 13 12 11 10 10 11 11
28 26 22 21 19 16 14 11 9 8 8 9 10 10 11 13 13 14 14 14 14 14 15 15 15 15 15 15 15 15 15 15 15 14 13 14 14 14 13 13 13 12 12 11 11 12 11 11 12 12 12 11 10 9 8 8 8 8 8 9 9 9 6 5 4 3 3 6 7 8 11 12 13 13 14 15 15 14 13 12 11 10 11 12 11
28 26 24 21 19 16 14 11 9 9 8 9 9 10 11 12 13 14 14 14 15 15 15 15 15 15 15 15 15 15 14 13 14 13 13 13 13 13 13 13 12 12 11 11 11 11 11 11 11 11 11 10 9 8 8 8 8 8 8 9 9 9 7 5 5 4 5 6 7 9 13 14 15 16 16 16 15 14 13 12 11 11 11 12 11
28 27 24 22 20 16 14 11 10 9 9 9 9 10 10 11 12 13 14 14 15 15 15 15 15 15 15 15 15 14 13 13 13 13 13 13 13 13 13 13 12 11 10 10 10 10 10 10 10 10 10 9 8 8 7 8 8 8 8 9 8 9 8 6 6 7 7 8 9 11 12 14 16 17 17 16 16 15 14 13 12 12 12 12 12
27 26 24 23 20 17 14 12 10 9 9 9 9 10 10 10 11 12 13 13 14 15 15 15 15 15 15 14 14 13 13 13 13 13 13 13 13 13 13 12 12 11 10 10 9 9 9 9 9 9 8 8 7 7 7 7 7 8 8 8 8 9 9 7 8 9 10 10 12 13 14 15 16 16 16 16 15 14 14 14 14 14 15 15 15
26 25 24 22 21 17 14 12 10 9 9 10 10 10 10 10 11 11 11 13 14 14 14 14 14 14 13 13 13 13 12 12 13 13 13 13 12 12 12 11 11 11 10 10 9 8 7 7 8 7 6 6 5 5 6 6 7 8 7 8 8 9 9 9 10 11 12 12 14 15 14 14 14 14 15 15 15 15 16 17 17 17 16 16 15
26 25 24 23 21 18 15 12 11 9 9 10 10 10 10 11 11 11 11 12 13 13 13 13 13 13 12 12 13 12 12 12 13 13 12 12 12 11 11 10 10 10 10 9 9 7 6 7 6 5 4 4 4 4 5 5 7 7 7 8 7 8 10 11 12 14 15 15 16 16 14 13 13 13 15 16 16 16 17 17 16 16 15 15 15
26 25 24 23 21 19 16 13 11 10 9 9 10 10 10 11 11 11 11 12 12 13 13 13 13 12 12 12 12 12 12 12 12 12 11 11 11 10 10 9 9 9 9 8 8 7 6 6 5 4 3 2 3 3 4 5 7 6 7 8 7 9 10 11 13 14 16 15 14 14 13 12 12 13 15 15 15 15 15 15 15 14 14 14 14
26 25 24 23 21 19 17 15 12 10 9 9 10 9 10 11 11 10 10 11 12 12 12 13 12 12 12 12 12 11 11 11 11 11 10 10 10 10 9 9 9 8 8 7 6 6 5 4 3 4 2 2 2 3 5 6 7 6 6 7 8 10 11 12 13 14 14 13 12 12 12 12 12 13 14 13 13 14 14 14 13 13 13 13 12
25 25 24 22 21 20 18 16 13 11 9 9 9 9 9 10 11 10 10 11 11 11 12 13 12 12 12 12 12 11 10 10 10 10 10 9 9 9 8 8 8 7 6 5 4 3 2 1 2 3 2 2 2 5 7 7 6 6 7 7 9 11 12 13 13 12 11 11 11 12 13 13 11 12 12 11 11 12 13 13 12 12 12 12 11
24 24 23 23 21 20 18 16 13 11 10 9 8 8 9 10 11 10 10 10 11 11 12 13 13 12 11 11 11 11 10 10 10 9 9 8 8 8 7 7 6 5 4 3 2 1 1 0 1 1 2 2 4 8 9 9 8 7 8 8 10 13 13 14 13 12 11 10 11 12 13 12 10 11 10 10 10 11 12 12 11 11 10 10 10
23 24 23 22 21 20 18 16 14 12 10 9 8 8 9 10 11 10 10 10 10 11 12 13 13 12 12 10 10 10 10 10 10 9 9 8 8 7 7 6 4 3 3 2 1 1 1 1 1 3 3 3 7 9 10 10 9 8 9 10 12 14 14 14 12 12 11 9 10 10 10 9 9 10 9 9 10 10 11 10 10 10 9 8 8
23 23 22 22 21 19 17 16 14 12 11 9 8 8 9 9 10 10 9 9 10 10 10 12 13 12 12 11 9 9 9 9 9 9 8 8 7 6 6 5 4 3 2 1 1 2 3 3 3 5 4 4 8 10 10 10 10 10 11 13 14 15 14 13 12 11 10 9 8 8 9 9 8 9 8 8 9 9 9 9 9 9 8 7 7
23 23 22 21 20 20 17 16 14 13 11 9 8 7 8 9 9 9 9 8 9 9 9 11 12 11 12 11 9 8 7 7 7 7 7 7 6 6 5 5 5 3 2 1 1 3 4 4 5 6 4 5 9 10 10 10 10 11 13 15 16 16 15 13 12 11 10 9 8 7 7 7 7 8 8 8 8 8 8 8 8 8 7 7 6
22 23 22 21 19 19 17 16 14 13 11 9 8 7 8 8 9 9 8 8 8 9 9 10 11 10 10 9 8 7 6 7 6 6 6 6 6 6 6 5 5 3 2 1 1 3 4 5 7 6 4 5 8 10 10 10 11 12 13 15 16 16 16 15 13 12 11 10 9 8 7 6 5 6 8 7 6 7 7 7 7 7 7 6 5
22 22 22 21 18 18 17 15 14 12 11 9 8 7 7 8 8 8 8 7 8 9 9 9 9 9 8 7 7 6 6 6 5 5 5 5 6 6 6 6 5 4 3 2 1 2 4 5 7 7 4 4 7 9 10 10 11 12 13 15 15 16 16 15 14 13 12 11 10 9 8 7 7 7 7 6 5 6 7 7 8 7 7 6 6
22 21 21 20 18 18 18 16 14 12 11 10 8 7 7 8 8 8 8 8 8 10 9 9 9 8 7 7 6 5 4 5 5 4 4 5 5 6 6 6 5 5 4 2 1 2 3 5 7 7 4 3 5 8 9 10 10 12 13 13 14 14 15 15 14 13 12 11 10 10 9 8 8 8 7 6 6 7 8 8 8 8 7 7 7
20 20 20 18 18 18 18 17 15 14 12 11 10 8 7 8 9 8 8 8 8 10 10 9 9 8 7 6 5 3 3 3 3 3 3 4 5 5 6 6 5 5 5 3 2 2 3 5 6 7 5 3 3 5 7 8 9 10 11 12 12 13 13 13 13 13 12 11 10 10 9 8 8 8 7 7 7 8 8 8 8 9 8 8 7
18 18 18 17 18 18 18 17 15 14 13 11 10 10 9 9 9 8 8 9 9 9 10 9 8 7 6 5 4 3 3 2 2 2 2 3 4 4 5 5 5 5 5 4 2 2 3 5 6 7 6 3 2 3 5 7 7 8 9 10 11 11 11 12 12 12 12 11 11 10 9 9 8 8 8 8 8 9 9 9 10 10 9 8 8
17 17 17 17 17 17 17 16 15 14 13 12 11 10 9 9 8 8 8 9 9 9 9 8 7 6 6 5 4 3 3 3 2 2 2 2 3 4 4 4 4 4 5 5 3 2 3 5 7 7 6 4 2 2 3 4 5 6 7 9 9 9 9 10 10 10 10 10 10 10 9 8 8 8 9 9 8 9 10 10 10 9 9 8 7
16 17 16 17 17 16 17 16 15 14 13 12 11 10 8 8 8 8 9 8 8 7 7 7 6 5 5 4 3 2 2 3 3 3 3 3 3 3 4 3 3 4 5 5 4 3 3 5 7 7 7 5 3 1 1 2 4 4 6 7 7 8 8 8 8 8 8 9 9 10 9 8 8 9 10 9 9 9 10 10 9 9 8 8 7
16 16 15 16 17 17 17 15 15 14 13 12 10 9 8 8 8 8 8 7 7 6 6 6 6 5 5 4 3 2 3 3 3 4 5 4 4 3 4 3 3 3 4 4 4 3 2 5 7 8 8 7 5 3 1 1 2 3 4 5 6 6 6 6 6 7 7 7 8 8 9 9 9 10 10 10 10 10 10 10 9 9 9 9 7
16 16 14 15 17 17 16 15 14 13 12 10 9 9 8 8 7 7 6 6 6 6 5 5 5 5 5 5 4 4 4 4 5 6 6 5 5 4 3 3 3 2 3 3 4 3 2 3 7 9 10 9 7 5 3 1 1 2 3 3 4 4 4 4 5 5 6 6 7 7 8 9 10 10 10 10 10 10 9 9 9 9 9 9 8
16 16 15 16 16 16 15 14 13 11 10 10 9 9 8 8 7 6 6 6 6 6 6 6 6 6 7 6 5 5 5 5 5 7 7 6 6 5 3 2 2 2 2 2 3 3 2 2 6 10 11 10 8 6 4 2 2 2 2 3 4 4 3 3 4 4 5 6 6 7 8 9 9 10 10 11 11 10 9 9 9 9 10 10 9
15 15 14 15 16 15 14 13 12 11 10 9 9 9 8 8 8 8 8 8 8 7 8 8 8 8 8 7 6 5 5 4 5 5 5 5 5 5 4 3 2 1 1 1 1 2 2 1 5 10 12 12 10 7 5 3 2 2 2 3 4 4 4 4 3 4 4 5 6 7 7 8 9 9 10 11 11 10 10 9 9 10 10 10 9
15 15 15 15 16 15 13 12 11 11 10 9 10 10 10 10 10 10 9 9 9 9 9 9 9 8 8 7 7 7 5 4 4 4 3 3 3 3 3 3 2 2 1 0 1 1 1 0 3 9 13 13 12 9 6 5 3 3 3 4 4 5 6 6 4 4 5 6 7 7 7 7 8 9 9 10 11 11 11 11 10 11 11 11 10
15 15 16 16 15 14 12 12 11 11 10 11 11 12 12 11 11 10 9 8 8 9 9 8 8 7 7 7 6 5 5 3 3 3 2 2 2 2 2 2 2 1 1 2 1 1 0 0 2 8 14 15 13 11 9 7 6 5 5 5 5 6 7 8 7 6 6 7 7 7 7 7 8 9 9 9 10 10 11 11 11 11 11 11 11
16 16 17 16 15 13 12 12 12 11 11 12 12 12 11 11 10 10 9 8 8 8 8 7 6 6 5 5 4 4 4 3 2 2 2 2 2 2 2 2 2 2 1 1 3 2 2 2 2 5 12 15 15 13 12 11 9 8 8 7 7 7 8 9 9 9 9 9 8 8 8 7 8 9 9 9 11 11 11 11 11 12 11 11 11
16 17 16 15 15 14 13 13 12 11 11 11 11 11 11 10 10 9 8 8 8 7 6 5 4 4 4 4 4 4 4 4 3 3 3 3 3 2 2 2 2 2 3 2 2 3 3 4 3 4 9 14 16 15 15 14 13 12 11 10 10 10 10 10 11 11 11 10 10 10 9 9 9 9 9 10 11 11 11 11 11 12 12 12 12
16 17 16 15 15 14 14 13 12 11 11 11 11 11 10 9 8 7 7 6 7 6 5 4 2 2 3 4 4 4 4 4 4 4 4 3 3 2 2 2 2 3 2 3 3 2 3 4 5 6 7 11 15 17 17 16 15 14 13 13 13 13 13 13 13 12 12 12 12 12 11 11 10 10 10 9 10 11 11 11 11 11 12 13 12
16 16 15 16 15 15 14 13 12 11 11 11 11 10 8 8 7 6 6 5 5 5 4 3 2 2 3 3 3 3 3 4 4 5 4 4 4 3 3 2 2 3 3 3 4 4 4 4 5 8 9 10 12 16 18 18 17 14 14 15 16 17 17 17 16 15 14 14 14 14 14 13 12 11 10 10 10 10 11 11 10 10 11 13 12
16 15 15 15 15 15 14 12 11 10 10 10 9 8 8 7 7 6 5 4 4 4 3 3 2 1 2 2 3 4 4 5 5 5 4 3 4 4 4 3 3 4 3 3 4 4 5 5 5 7 9 11 12 14 17 18 18 17 17 18 19 19 20 19 19 18 18 17 16 16 16 16 15 13 12 12 10 10 10 10 10 10 11 12 11
15 15 15 15 15 14 13 12 10 10 9 9 8 7 7 7 6 5 4 4 4 3 3 2 1 1 1 2 3 4 4 5 5 5 3 3 4 4 4 4 4 4 4 4 4 5 5 6 7 7 7 9 12 14 17 19 20 21 22 22 22 22 22 23 22 21 21 20 19 18 17 18 18 16 15 14 12 11 11 10 10 9 11 12 11
15 16 16 15 15 13 12 11 10 9 8 8 7 6 6 6 5 4 3 3 3 3 3 2 1 0 1 2 3 3 4 5 5 3 2 2 3 4 4 4 4 4 4 4 4 5 5 6 7 8 9 9 10 12 15 17 20 21 22 23 23 23 24 25 24 23 22 22 21 20 19 19 20 19 18 17 16 14 12 11 11 9 10 11 11
14 15 15 15 14 12 12 11 9 9 8 8 7 6 5 5 5 4 3 3 3 3 3 2 1 1 1 1 1 2 3 5 5 4 1 1 3 4 4 4 4 4 4 5 5 6 6 7 8 8 9 10 11 13 14 16 18 20 21 22 23 23 24 25 25 24 22 22 22 21 21 20 20 21 21 20 19 17 15 13 12 11 10 11 12
13 14 14 14 13 12 12 10 9 8 7 7 7 6 5 5 5 5 4 4 4 4 3 2 2 2 2 1 1 2 4 5 6 5 3 3 3 3 3 4 5 5 6 6 7 7 8 8 9 10 10 11 12 14 15 17 19 20 21 22 22 23 24 25 26 25 23 23 23 22 22 21 20 20 21 22 21 19 17 16 14 12 11 11 12
13 12 12 13 12 11 11 10 9 8 8 7 7 6 6 6 6 6 5 4 4 3 3 3 4 4 2 2 2 3 3 4 5 5 4 4 4 5 4 5 7 8 8 9 9 9 10 10 11 12 13 13 13 14 15 17 19 20 21 22 23 23 23 23 24 26 25 24 24 24 23 23 21 20 21 22 22 21 19 18 16 13 13 12 13
14 13 12 13 12 11 11 11 10 9 8 7 7 7 6 7 6 6 5 4 4 3 2 2 3 4 5 5 5 4 4 4 5 5 4 3 4 4 5 7 8 9 9 9 10 10 10 11 12 13 14 15 16 16 17 18 19 21 22 22 22 23 23 22 22 24 26 26 25 25 25 25 24 23 22 22 23 23 22 19 17 15 15 14 13
16 15 14 14 13 13 12 11 10 9 8 7 7 7 6 6 6 5 5 4 3 2 2 4 4 5 6 6 6 6 5 5 5 4 4 4 4 5 6 7 8 9 9 9 8 9 10 11 12 13 14 16 17 18 19 20 21 22 23 23 23 23 22 21 21 22 24 26 26 26 27 27 26 25 24 23 23 24 24 22 20 19 18 16 14
17 16 16 15 13 13 11 10 10 9 7 7 6 6 5 5 4 3 2 2 1 2 3 4 5 4 5 6 6 6 6 6 6 5 5 5 5 6 6 7 7 8 8 8 8 9 10 11 13 14 15 16 17 19 19 20 22 23 23 23 23 23 22 21 20 20 21 23 23 24 25 26 27 27 26 24 24 24 25 25 23 22 20 17 15
16 15 16 15 13 12 11 10 9 9 7 7 6 5 4 3 2 2 2 2 2 2 1 2 4 5 5 6 7 7 8 8 8 8 8 8 9 9 9 8 9 9 9 10 10 11 12 13 14 15 15 16 16 17 17 17 18 19 20 20 21 21 20 20 20 20 19 19 19 19 20 22 24 26 26 25 24 24 25 26 26 23 21 19 17
16 15 14 14 13 12 11 11 11 10 9 7 6 5 4 3 2 2 1 1 1 1 1 4 5 5 5 6 7 8 9 10 10 10 10 11 11 12 12 12 12 12 12 12 13 13 13 14 15 15 15 14 13 14 15 15 15 16 18 20 20 18 17 18 18 16 16 16 16 16 16 18 20 22 24 25 25 25 25 27 27 26 24 21 19
15 13 12 13 13 13 13 12 12 10 8 6 4 3 3 3 3 4 3 2 2 3 3 4 4 4 4 5 6 6 7 8 9 9 9 10 11 12 12 12 13 13 13 13 13 12 13 14 15 15 14 13 13 13 13 13 15 15 16 17 17 17 17 15 14 14 17 18 16 16 16 16 17 17 21 24 25 26 26 27 29 29 27 24 22
14 12 13 14 14 14 13 11 10 8 6 5 4 4 4 3 4 5 5 4 4 5 4 3 4 5 7 7 7 7 8 8 9 10 10 10 11 12 12 13 13 14 14 13 12 12 12 13 13 13 14 13 14 14 13 13 15 14 13 16 16 15 13 12 15 18 19 18 17 17 17 18 17 17 18 22 24 26 27 28 30 30 28 25 24
15 13 13 13 12 11 11 9 7 5 4 5 5 6 5 4 3 3 3 3 3 3 2 4 6 7 9 10 10 12 12 12 13 14 14 14 14 14 14 15 14 14 13 11 10 10 10 10 11 12 13 13 15 16 15 13 15 14 13 15 14 11 13 16 20 21 18 19 20 20 20 19 19 18 18 20 22 25 27 28 29 30 30 27 26
13 13 12 9 8 9 10 8 4 3 3 4 6 7 7 5 2 1 2 1 2 2 4 5 7 8 10 11 12 14 14 14 14 15 17 17 16 15 16 17 16 16 17 15 12 11 11 11 11 11 11 13 15 16 16 15 15 15 13 13 14 14 18 21 20 20 21 22 21 20 21 20 19 20 20 20 21 24 26 28 28 30 31 30 29
14 14 13 9 8 9 8 6 4 3 2 4 6 7 8 7 5 2 1 2 3 4 5 6 8 9 9 10 12 14 14 14 15 16 17 17 16 15 16 18 19 18 19 18 16 16 17 16 14 12 11 11 12 14 16 17 17 17 14 15 17 17 19 20 19 21 24 24 23 22 22 21 20 21 22 21 22 24 25 27 28 30 31 32 32
12 12 13 12 11 10 8 4 2 1 3 5 8 9 8 7 7 6 4 2 4 5 7 8 9 9 10 11 14 15 16 16 16 16 16 16 16 17 18 20 20 19 17 16 16 18 19 18 17 16 14 11 11 12 13 14 16 17 16 16 18 17 18 20 20 20 21 26 28 26 24 23 22 23 24 23 22 23 25 26 27 29 31 32 32
13 11 11 12 10 8 6 2 1 3 5 6 9 11 8 6 8 9 7 5 5 6 8 9 9 11 13 14 16 17 17 17 17 16 15 15 16 18 19 20 19 18 16 15 16 18 19 19 19 18 15 12 12 14 14 14 14 15 15 15 17 18 19 19 19 19 20 25 28 28 26 26 26 25 24 25 25 24 24 25 26 27 29 32 31
13 11 8 8 8 5 2 1 3 5 8 9 11 10 8 7 8 10 9 7 7 8 9 10 11 13 14 15 15 15 14 14 14 14 14 15 16 17 18 18 18 17 16 16 16 17 18 19 19 18 18 16 16 16 17 18 18 18 17 16 16 17 19 20 20 21 21 22 26 29 28 26 28 29 26 26 26 25 25 24 26 27 26 29 31
12 11 8 5 4 2 0 3 5 7 9 10 10 8 7 7 8 9 7 6 6 7 8 9 10 11 12 12 12 12 12 12 12 12 12 12 13 14 15 16 17 17 18 18 18 18 19 19 20 20 20 19 19 19 19 20 21 21 20 19 18 16 17 19 21 22 22 22 25 30 29 26 27 29 27 26 25 23 23 23 25 27 25 26 28
Wind_Direction
175 172 176 176 171 165 160 169 166 151 140 126 118 114 117 116 117 116 115 114 114 114 114 114 114 114 114 114 113 112 110 108 107 106 108 109 108 107 104 103 104 103 103 104 104 103 103 104 105 105 103 101 100 95 89 83 75 70 66 65 66 76 111 118 112 96 56 47 66 95 101 106 116 123 123 121 123 124 121 118 116 115 111 106 104
171 169 173 174 170 164 162 169 166 151 139 124 118 115 119 120 120 119 118 118 117 115 114 115 116 116 116 115 115 115 113 112 110 110 111 109 108 106 104 103 103 103 104 105 104 103 104 106 107 106 103 101 100 93 84 78 72 70 68 66 67 66 85 130 143 115 68 57 67 99 109 107 108 111 115 119 123 125 124 121 118 115 107 101 100
169 166 169 171 168 163 164 170 166 151 138 125 119 117 120 124 124 122 121 121 120 116 115 116 117 118 118 118 117 117 116 115 113 112 110 108 108 106 105 103 101 102 103 103 104 103 105 106 105 105 101 99 94 88 81 77 72 69 69 66 62 53 60 103 131 122 94 78 81 103 109 108 108 109 112 118 125 126 124 121 118 114 107 103 103
168 165 167 168 167 163 166 173 167 151 138 127 122 119 122 128 128 124 125 125 122 118 117 118 118 119 121 121 121 122 119 117 114 112 110 108 106 104 102 100 101 101 102 102 103 105 105 102 101 101 96 94 90 87 82 78 74 70 73 66 56 47 54 91 110 109 103 91 92 103 104 103 108 110 112 118 123 125 123 122 119 113 108 105 101
168 167 167 165 165 162 168 176 169 155 140 129 124 122 123 131 130 126 129 129 125 122 121 121 121 122 123 124 124 123 120 117 114 113 110 106 103 100 100 100 101 101 101 101 101 103 102 102 102 99 94 94 91 88 82 77 73 67 64 54 46 44 57 96 109 108 108 99 98 104 102 100 105 107 110 114 116 116 114 111 106 99 96 95 91
169 169 167 165 164 163 170 179 174 160 143 131 126 125 127 132 132 130 131 131 128 125 125 125 124 125 126 126 125 121 120 119 116 113 109 105 101 100 101 100 100 100 101 101 102 102 103 105 101 95 94 92 91 90 82 77 65 54 46 43 44 43 61 98 110 112 110 103 104 106 101 99 101 101 104 104 103 101 98 96 94 91 89 90 88
172 169 166 166 164 164 170 179 180 165 147 135 130 131 132 132 135 136 137 136 131 127 127 128 128 129 129 128 124 121 120 119 115 112 109 106 103 102 100 99 99 98 99 100 101 102 105 104 94 88 91 93 97 94 82 72 55 45 39 45 48 50 70 96 107 114 114 107 105 105 102 99 99 98 98 96 95 95 94 94 94 93 91 90 89
174 169 167 166 165 166 170 180 183 167 152 142 138 137 134 133 138 140 140 139 136 133 131 132 133 133 132 130 123 121 120 117 114 112 109 106 105 104 101 99 100 97 95 97 100 100 103 100 86 79 86 108 107 84 69 63 53 44 43 52 59 63 78 99 109 115 116 111 106 103 100 97 97 99 95 92 92 94 95 95 96 96 94 92 91
174 169 167 166 166 168 171 180 182 170 158 151 144 138 133 132 138 142 140 138 141 140 137 137 136 135 133 130 124 120 120 119 116 112 108 106 105 103 100 98 97 94 93 95 99 101 102 93 72 65 82 123 98 60 54 55 57 54 54 62 70 72 82 100 112 117 113 108 104 101 101 101 103 103 96 91 90 92 93 92 92 94 92 91 89
175 169 166 166 168 170 173 178 179 173 165 159 149 138 132 133 138 142 140 139 142 142 140 137 133 133 132 131 128 123 123 121 118 114 109 107 105 102 99 98 95 93 94 95 97 104 112 80 54 58 99 130 68 51 53 60 68 67 69 73 77 77 83 97 109 115 110 104 102 106 111 110 108 106 100 95 88 87 89 86 84 83 83 82 81
175 169 166 167 170 172 174 176 177 177 171 165 153 140 134 134 139 141 142 141 142 143 141 136 131 129 128 131 130 127 127 122 120 116 111 109 104 99 97 97 98 98 100 103 112 151 209 235 74 87 131 121 62 60 65 75 80 76 77 80 81 81 85 96 104 108 106 105 105 111 111 106 107 110 106 98 89 83 80 78 76 75 76 77 73
175 170 168 169 171 173 174 175 177 180 177 170 157 145 138 137 139 141 143 144 145 145 142 138 134 130 125 124 127 133 133 129 126 123 118 114 107 103 101 101 102 105 108 114 129 150 157 136 115 127 140 101 71 71 74 80 78 76 78 78 78 79 85 93 99 99 98 101 106 109 106 103 111 111 104 95 86 79 75 73 74 71 71 72 67
176 171 171 171 173 174 174 176 179 182 179 174 163 148 143 142 140 142 144 146 150 148 141 139 139 137 131 128 134 140 138 132 128 125 120 115 107 104 103 105 106 104 102 100 92 98 111 115 123 137 137 92 81 80 78 79 77 76 77 76 75 75 80 86 89 88 86 88 93 101 100 102 109 107 98 87 77 70 68 67 67 64 63 63 62
179 173 173 174 176 175 176 177 179 184 182 178 169 153 150 147 143 142 145 151 156 153 141 139 142 142 139 140 144 143 138 131 123 119 116 108 97 92 93 98 102 100 95 87 88 97 111 125 136 144 139 93 86 85 81 81 79 76 74 73 72 71 73 76 80 79 78 76 74 77 81 86 97 101 92 78 69 60 56 57 57 53 52 53 56
179 176 177 174 174 175 176 178 181 185 184 182 175 165 157 152 149 146 148 157 162 157 145 141 144 145 146 145 145 139 132 130 123 117 111 100 87 84 89 93 95 94 96 100 96 100 116 134 146 153 147 100 90 88 84 81 78 72 71 71 69 68 67 68 71 72 71 68 65 58 52 48 51 69 71 67 61 50 46 47 46 44 44 46 46
178 179 180 175 173 176 176 178 183 185 185 186 185 177 165 158 157 154 154 159 163 158 146 142 140 143 147 140 144 143 136 135 126 117 108 95 85 86 91 91 91 89 87 89 95 106 123 142 152 161 161 108 91 89 85 79 73 69 70 70 68 66 65 65 65 66 66 63 61 54 45 38 34 39 45 48 45 38 34 33 35 35 36 34 29
175 178 179 177 177 178 178 180 184 186 190 191 191 186 174 166 165 163 163 162 161 155 146 141 135 134 138 134 142 148 143 138 127 118 103 91 88 91 94 92 89 86 78 73 81 111 131 150 161 171 172 125 90 85 84 76 70 69 71 70 68 66 64 64 63 62 62 61 60 53 45 38 35 32 27 29 28 25 23 24 28 27 25 22 13
173 177 176 177 180 180 181 183 185 188 191 192 192 189 181 174 173 169 164 162 156 151 147 141 136 134 138 138 136 130 122 130 132 121 95 86 88 89 95 95 91 86 79 73 75 119 144 159 173 183 183 149 92 80 78 72 68 71 72 71 69 66 64 63 62 60 59 59 58 53 45 36 32 28 22 23 23 25 26 23 23 19 17 13 4
171 173 173 178 182 182 183 185 186 187 190 192 194 191 186 177 174 169 161 161 153 147 149 145 141 140 140 137 124 104 95 117 131 114 91 86 88 86 90 93 95 92 85 82 81 123 154 170 184 193 197 185 116 85 74 68 68 75 74 73 70 65 63 62 61 58 56 55 53 50 44 38 34 32 31 33 32 30 26 20 18 14 9 5 356
167 169 173 181 181 181 185 186 184 187 191 193 195 193 187 175 169 166 163 162 154 145 151 152 148 147 143 132 124 119 97 96 93 84 91 88 90 90 90 89 93 92 86 86 87 121 157 180 194 199 208 217 177 119 82 65 65 77 73 73 72 66 63 61 59 56 54 51 49 45 41 38 35 36 36 36 31 22 16 11 8 3 359 355 345
166 171 175 177 177 179 184 184 184 188 191 192 192 188 181 171 164 164 164 166 161 151 150 148 144 142 137 128 126 133 83 71 68 67 78 77 86 94 97 89 82 82 82 87 89 112 158 187 200 205 216 235 231 211 130 64 60 72 67 70 71 65 63 60 58 53 51 48 46 42 39 38 34 33 29 24 17 9 4 359 356 353 351 347 336
165 169 169 172 175 179 182 184 185 187 189 188 184 178 174 168 163 164 165 163 157 150 148 143 139 132 130 129 116 98 66 65 65 66 73 71 75 87 99 93 86 79 78 85 86 99 148 191 205 210 219 238 246 256 256 53 53 60 55 58 58 56 56 56 55 50 47 41 42 39 36 35 34 34 26 18 12 5 359 354 354 353 350 347 338
166 166 164 168 174 178 181 183 184 184 183 178 172 169 169 166 161 161 158 152 145 144 146 139 139 134 128 124 101 86 72 69 70 73 77 78 78 83 96 90 91 85 79 84 84 93 119 191 206 211 220 235 243 253 265 305 17 37 32 33 32 33 42 47 46 42 38 33 32 31 29 27 27 29 25 18 11 5 1 356 357 356 350 348 342
164 165 166 169 172 176 177 178 179 177 173 169 167 164 163 160 151 143 132 130 133 130 127 122 127 124 118 112 96 82 66 63 69 71 69 73 82 87 99 97 93 82 75 82 83 94 99 188 210 212 217 231 238 242 249 271 312 340 350 352 356 3 17 23 26 25 21 19 18 18 20 19 17 19 18 14 8 4 0 355 355 354 347 345 342
162 162 165 166 169 174 174 173 172 169 167 165 162 158 153 143 129 123 118 118 117 111 107 107 112 110 107 98 83 71 60 63 67 69 62 60 67 75 87 95 119 126 62 60 66 86 87 154 212 213 215 226 232 234 231 238 266 287 316 332 338 341 342 346 356 4 1 2 3 4 9 11 11 13 12 10 5 359 353 350 350 349 344 340 336
161 163 163 164 168 171 170 168 164 161 160 155 152 145 136 125 118 115 112 110 105 101 98 97 99 97 93 80 70 65 64 72 66 63 62 58 50 45 58 68 98 152 185 252 9 49 69 78 218 215 216 223 229 233 233 234 246 267 291 311 324 328 328 325 326 334 339 343 344 348 355 358 359 3 4 4 2 355 347 345 345 344 341 334 330
161 163 165 165 165 166 165 161 156 154 147 141 137 129 121 115 113 109 104 102 99 99 95 93 92 85 76 67 64 62 62 71 64 47 34 45 38 20 21 27 38 71 178 201 225 273 267 276 234 217 218 224 230 234 238 244 248 256 270 284 302 314 318 314 310 311 316 324 329 332 338 342 345 349 352 355 355 351 346 341 337 338 337 332 327
164 165 166 164 161 160 157 153 151 146 137 130 122 115 112 109 106 101 97 96 95 98 96 92 88 79 67 58 53 47 44 41 33 14 1 5 1 358 358 356 360 3 355 211 211 227 247 247 252 224 221 225 232 237 242 249 254 260 267 273 284 295 305 306 302 299 300 307 313 318 323 325 329 334 339 343 344 344 343 336 331 332 332 332 325
166 166 166 161 158 155 152 150 146 139 130 123 117 113 110 107 104 100 100 99 100 103 99 93 80 66 50 41 33 22 16 5 352 340 341 344 341 340 338 333 322 324 336 336 243 222 233 242 253 242 228 228 233 240 245 251 258 263 267 273 279 285 292 296 296 294 293 298 302 306 309 312 314 318 325 330 332 333 335 332 328 327 327 328 320
168 168 165 158 156 154 151 148 142 137 131 126 123 120 115 112 111 109 111 106 108 109 103 97 72 45 27 21 17 7 358 345 331 325 328 330 333 334 325 314 304 310 319 327 323 283 250 244 249 251 242 233 234 240 245 250 255 261 266 272 279 283 285 287 290 289 287 288 292 294 294 296 297 300 307 313 320 322 326 329 325 324 323 321 314
169 167 161 158 156 153 151 147 144 142 138 135 131 127 122 122 123 122 125 119 115 110 100 86 51 30 18 17 4 348 334 322 312 308 312 317 324 328 330 316 298 318 327 314 318 315 294 272 256 248 245 241 238 241 243 244 247 254 262 268 274 278 280 281 283 284 284 283 284 286 285 284 283 285 289 293 303 310 316 321 320 320 317 313 307
168 163 158 157 155 153 152 149 148 148 144 140 137 137 134 136 138 136 135 129 118 106 94 74 55 40 17 3 339 332 322 311 300 295 299 311 322 327 330 323 311 321 331 320 310 305 298 296 282 262 250 244 243 242 243 243 243 249 258 263 268 272 276 278 278 281 283 282 282 283 284 282 278 274 277 281 286 295 302 310 315 316 313 309 301
161 156 156 155 153 154 155 152 152 151 146 142 145 148 144 146 147 145 138 126 119 112 101 89 82 62 345 325 326 335 334 322 304 292 292 321 336 338 333 324 319 317 316 315 313 305 295 292 288 284 275 259 251 247 246 248 249 254 260 263 266 269 272 275 276 278 279 280 281 282 282 282 278 274 275 274 274 281 287 295 303 307 307 304 293
154 153 154 155 152 153 155 155 155 153 149 148 153 154 150 150 146 142 130 116 121 128 128 137 140 83 315 311 328 342 351 350 336 310 294 3 11 352 338 327 318 309 304 307 307 305 297 293 287 283 284 279 271 261 255 256 258 262 264 266 267 269 271 273 274 276 277 278 279 281 281 282 279 277 275 272 273 274 274 281 288 292 295 291 283
152 151 151 155 154 155 159 158 159 158 155 154 155 156 152 144 136 130 121 126 148 157 159 164 164 200 282 290 317 344 357 3 4 353 309 359 17 357 340 328 320 311 305 302 293 292 293 293 291 285 280 278 276 272 269 267 267 268 269 270 271 272 273 274 274 274 275 276 277 279 281 282 279 276 274 271 271 270 269 274 277 283 285 280 279
151 147 151 159 159 159 162 163 167 165 160 158 156 155 144 130 126 126 131 150 167 167 167 185 224 230 213 224 292 351 352 352 360 359 331 304 312 316 320 319 318 313 303 296 288 287 292 296 296 294 289 283 278 275 274 273 273 273 274 275 276 276 276 275 275 274 273 274 275 276 277 279 279 279 275 269 267 268 269 271 270 274 276 274 275
158 154 156 162 162 162 166 170 173 171 167 161 152 146 134 128 129 135 146 161 172 181 192 210 244 257 266 299 331 347 335 334 343 346 337 310 294 291 300 312 313 312 305 298 294 292 294 295 295 296 295 292 288 284 281 279 279 279 279 279 279 279 278 276 276 275 273 272 272 274 275 277 278 280 277 270 268 267 266 267 266 267 268 267 267
164 162 157 158 161 162 169 174 175 173 167 156 144 140 135 137 142 147 158 174 184 201 222 248 283 307 329 342 347 344 334 333 336 336 333 315 299 291 295 305 308 311 310 303 298 294 294 294 293 294 293 292 292 292 291 287 286 286 285 283 282 282 281 279 276 274 274 273 273 275 276 278 278 278 278 274 270 267 264 262 262 263 262 261 260
163 161 155 157 164 165 170 171 168 167 162 155 147 142 143 149 158 163 176 204 221 248 289 309 316 326 335 339 342 344 347 348 345 343 332 316 309 308 308 311 313 316 318 314 306 298 296 297 296 296 295 295 295 295 294 293 291 290 289 288 287 286 284 283 279 276 276 276 276 275 276 277 277 277 276 274 271 268 264 257 257 263 262 257 255
158 158 157 159 162 163 165 162 159 160 161 162 149 141 149 154 169 175 183 209 225 270 295 314 320 332 342 344 348 351 357 357 354 349 340 335 332 332 330 326 327 327 323 320 314 309 304 302 301 300 300 299 297 297 296 295 295 295 293 292 289 287 285 285 284 282 280 280 281 279 277 276 275 275 273 272 271 268 264 257 256 260 259 255 253
151 159 163 159 157 156 158 156 151 148 148 147 136 136 144 142 159 146 139 163 155 200 269 23 22 10 4 356 357 1 5 5 1 359 357 357 357 356 355 351 348 344 337 333 329 326 321 316 312 309 307 305 302 302 303 304 305 305 304 301 297 292 285 284 285 284 284 285 286 285 281 278 274 273 272 270 269 266 262 257 253 255 255 253 253
154 164 162 151 149 148 147 143 133 129 128 127 126 125 120 114 114 89 95 163 165 228 18 58 51 32 16 7 9 15 17 14 9 8 5 3 2 1 358 357 355 351 346 341 336 331 326 322 318 316 315 314 311 312 315 318 316 314 311 309 309 306 298 296 295 293 293 293 291 290 288 284 279 276 273 270 267 263 260 256 250 250 252 250 248
150 153 148 140 138 133 130 128 119 117 116 111 104 87 81 73 71 61 40 27 9 360 27 61 51 24 5 360 1 7 15 16 11 5 360 358 356 353 351 348 345 342 338 332 327 325 323 321 319 319 320 321 318 318 321 320 314 317 317 312 313 314 312 315 314 308 309 306 298 294 293 290 285 281 276 271 266 262 258 254 249 247 248 247 245
145 138 135 134 132 125 120 117 109 107 100 82 56 37 31 27 51 61 41 35 61 70 73 62 25 4 354 347 341 343 351 353 350 345 340 339 339 338 334 331 328 329 331 329 324 323 322 321 320 319 321 324 321 319 322 318 312 318 321 314 313 313 313 318 315 312 313 312 305 302 300 296 292 286 280 275 269 264 258 253 249 248 247 246 244
138 131 132 134 132 128 123 118 105 97 88 66 47 32 15 2 36 73 68 76 108 95 8 350 359 358 355 352 347 345 344 344 343 340 338 337 336 335 330 328 328 328 331 332 328 329 329 327 325 323 324 325 320 317 318 315 310 313 317 314 312 308 306 310 312 311 312 312 310 308 305 302 299 292 283 278 274 269 263 255 251 250 250 246 243
141 139 142 138 139 138 131 129 122 104 84 47 30 18 3 352 344 189 157 186 237 282 329 355 2 356 354 351 343 339 339 340 338 336 336 336 337 337 333 330 330 327 327 328 328 328 329 330 329 327 330 328 320 316 314 312 309 310 313 309 304 302 304 308 310 306 306 307 306 305 304 304 303 298 289 282 279 275 269 261 254 250 250 247 242
147 149 149 147 156 155 144 145 143 113 67 30 15 2 357 357 349 339 25 9 339 345 356 354 342 339 340 335 328 327 328 327 326 328 331 331 330 329 325 323 324 323 323 326 326 323 323 326 325 323 326 323 315 313 314 316 312 308 307 302 301 303 304 306 305 303 305 305 304 306 305 304 303 302 298 290 285 279 271 265 259 252 248 245 241
145 151 154 155 160 156 147 148 137 62 27 19 1 348 350 353 345 342 346 340 334 333 330 327 324 322 319 316 315 316 317 317 319 324 326 324 321 319 316 317 320 320 318 319 319 318 318 317 313 311 316 317 309 306 307 310 309 308 307 303 302 302 298 300 301 300 298 297 303 309 308 307 304 300 301 298 292 284 273 264 261 258 252 245 240
160 164 161 153 149 141 131 126 24 24 23 8 343 332 333 336 330 326 314 289 289 303 309 312 310 307 307 310 314 316 317 318 319 319 318 316 314 313 314 317 321 321 319 314 310 311 311 310 310 311 314 311 302 298 296 296 296 300 304 302 302 303 301 301 300 300 298 295 300 306 308 309 306 301 300 299 297 292 282 267 257 259 258 250 244
159 165 169 148 133 126 115 9 353 2 355 337 320 314 316 320 318 317 311 292 282 287 291 294 300 306 313 320 324 327 329 329 328 326 323 319 315 314 316 320 324 327 327 322 316 315 317 319 322 322 320 314 305 300 295 292 291 293 297 297 299 302 303 303 300 302 303 299 299 301 304 307 304 301 301 300 299 295 290 276 258 256 259 256 248
157 161 172 152 128 133 61 354 356 345 328 314 305 304 312 317 319 322 324 315 299 296 297 302 311 320 329 337 342 344 346 346 344 341 337 332 326 325 326 329 331 332 333 333 334 334 335 335 334 333 330 326 320 314 306 300 297 295 296 296 296 293 294 298 300 301 300 299 300 300 303 305 301 299 300 300 298 294 290 282 262 254 258 260 253
Height
1536 1538 1541 1543 1544 1546 1547 1547 1547 1547 1547 1547 1547 1548 1547 1547 1547 1547 1548 1548 1549 1549 1549 1549 1549 1550 1550 1550 1550 1551 1552 1552 1552 1553 1553 1554 1554 1554 1554 1554 1554 1554 1555 1555 1555 1555 1555 1556 1556 1556 1556 1556 1556 1556 1557 1557 1557 1557 1557 1557 1557 1556 1556 1556 1556 1555 1555 1555 1555 1555 1555 1555 1556 1556 1556 1556 1557 1557 1558 1558 1558 1558 1558 1557 1557
1534 1538 1540 1543 1545 1546 1547 1548 1548 1547 1547 1547 1548 1548 1548 1548 1548 1548 1549 1549 1550 1550 1550 1550 1550 1551 1551 1551 1552 1552 1553 1553 1554 1554 1555 1555 1555 1555 1555 1556 1556 1556 1556 1556 1556 1556 1556 1556 1557 1557 1557 1557 1557 1557 1557 1557 1558 1558 1558 1558 1557 1557 1557 1556 1556 1556 1556 1555 1555 1555 1555 1556 1556 1556 1557 1557 1558 1558 1558 1559 1559 1559 1559 1558 1558
1535 1537 1540 1543 1545 1547 1548 1548 1548 1548 1548 1548 1548 1549 1549 1549 1549 1549 1549 1550 1550 1551 1551 1551 1551 1552 1552 1552 1553 1553 1554 1555 1556 1556 1556 1556 1556 1556 1557 1557 1557 1557 1557 1557 1558 1558 1558 1558 1558 1558 1558 1558 1558 1558 1558 1558 1558 1558 1558 1558 1558 1558 1557 1557 1557 1557 1556 1556 1556 1556 1556 1556 1557 1557 1558 1558 1559 1559 1559 1559 1559 1560 1559 1559 1559
1535 1537 1540 1543 1545 1547 1548 1549 1549 1548 1548 1548 1549 1549 1550 1550 1550 1550 1550 1551 1551 1552 1552 1553 1553 1553 1553 1554 1554 1555 1556 1556 1557 1557 1558 1558 1558 1558 1558 1558 1558 1558 1558 1559 1559 1559 1559 1559 1559 1559 1559 1559 1559 1559 1559 1559 1559 1559 1559 1559 1558 1558 1558 1557 1557 1557 1557 1557 1557 1557 1557 1558 1558 1558 1559 1559 1560 1560 1560 1560 1560 1560 1560 1560 1560
1535 1537 1540 1542 1545 1547 1549 1550 1550 1549 1549 1549 1549 1550 1550 1551 1551 1551 1551 1552 1552 1553 1553 1554 1554 1554 1555 1555 1555 1556 1557 1558 1558 1559 1559 1559 1559 1559 1559 1559 1559 1560 1560 1560 1560 1560 1560 1560 1560 1560 1561 1560 1560 1560 1560 1560 1560 1560 1560 1559 1559 1559 1558 1558 1558 1558 1558 1558 1558 1558 1559 1559 1559 1560 1560 1560 1560 1560 1561 1561 1561 1561 1561 1561 1561
1535 1538 1540 1543 1545 1547 1549 1550 1550 1549 1549 1549 1550 1550 1551 1551 1552 1552 1552 1552 1553 1554 1554 1555 1555 1556 1556 1556 1557 1557 1558 1559 1559 1560 1560 1560 1561 1561 1561 1561 1561 1561 1561 1561 1561 1561 1561 1561 1561 1561 1561 1561 1561 1561 1561 1561 1561 1561 1560 1560 1560 1559 1559 1559 1559 1559 1559 1559 1559 1559 1560 1561 1561 1561 1561 1561 1561 1561 1561 1561 1562 1562 1562 1562 1562
1536 1538 1540 1543 1544 1546 1549 1550 1550 1550 1550 1550 1550 1551 1551 1552 1552 1553 1553 1553 1554 1555 1556 1556 1557 1557 1557 1557 1558 1559 1559 1560 1560 1561 1561 1561 1562 1562 1562 1562 1562 1562 1562 1562 1562 1562 1562 1562 1562 1562 1562 1562 1562 1562 1562 1562 1562 1561 1561 1561 1560 1560 1559 1559 1559 1559 1560 1560 1560 1560 1562 1563 1562 1562 1562 1562 1562 1562 1562 1562 1562 1563 1563 1563 1562
1536 1538 1540 1542 1544 1546 1548 1550 1550 1550 1550 1550 1551 1551 1552 1552 1553 1553 1554 1554 1555 1556 1556 1557 1558 1558 1558 1559 1559 1560 1560 1561 1561 1561 1562 1562 1562 1563 1563 1563 1563 1563 1563 1563 1563 1563 1563 1563 1563 1563 1563 1563 1563 1563 1563 1563 1563 1562 1561 1561 1561 1561 1560 1560 1560 1561 1561 1561 1562 1562 1563 1564 1564 1564 1564 1564 1564 1563 1563 1563 1563 1563 1563 1563 1563
1536 1538 1540 1542 1544 1546 1547 1549 1550 1551 1550 1551 1551 1552 1552 1553 1553 1554 1555 1555 1556 1556 1557 1558 1559 1559 1559 1560 1560 1561 1561 1562 1562 1562 1562 1563 1563 1563 1564 1564 1564 1564 1564 1564 1564 1564 1564 1564 1563 1564 1563 1563 1563 1564 1564 1564 1563 1563 1562 1562 1562 1561 1561 1561 1561 1562 1562 1562 1563 1563 1564 1565 1565 1565 1565 1565 1565 1564 1564 1564 1564 1564 1564 1564 1564
1536 1538 1540 1542 1544 1545 1547 1549 1550 1551 1551 1551 1552 1552 1553 1554 1554 1555 1555 1556 1557 1557 1558 1559 1560 1560 1560 1560 1561 1561 1562 1562 1563 1563 1563 1563 1564 1564 1565 1565 1565 1565 1565 1564 1564 1564 1564 1564 1564 1564 1564 1564 1564 1565 1565 1565 1564 1564 1563 1563 1563 1562 1562 1562 1562 1562 1563 1564 1564 1565 1565 1566 1566 1565 1565 1566 1565 1565 1565 1565 1566 1565 1565 1565 1565
1537 1539 1541 1542 1544 1545 1547 1549 1550 1551 1551 1551 1552 1553 1554 1554 1555 1555 1556 1557 1557 1558 1559 1560 1560 1561 1561 1561 1562 1562 1562 1563 1563 1563 1564 1564 1564 1565 1565 1565 1565 1565 1565 1565 1565 1564 1564 1565 1565 1565 1565 1565 1565 1566 1566 1566 1565 1565 1565 1564 1564 1563 1563 1563 1563 1564 1564 1565 1565 1565 1566 1566 1566 1566 1566 1566 1566 1566 1567 1567 1567 1567 1567 1566 1566
1537 1539 1541 1542 1544 1546 1547 1549 1550 1550 1551 1552 1552 1553 1554 1555 1555 1556 1557 1557 1558 1559 1559 1560 1561 1561 1561 1562 1562 1562 1563 1563 1563 1564 1564 1564 1565 1565 1565 1566 1566 1565 1565 1565 1565 1565 1565 1565 1565 1565 1565 1565 1566 1567 1567 1567 1567 1566 1566 1566 1565 1565 1565 1565 1565 1565 1565 1566 1566 1566 1567 1567 1567 1567 1567 1567 1567 1567 1567 1568 1568 1568 1567 1567 1567
1537 1539 1541 1543 1544 1546 1548 1549 1550 1550 1551 1552 1553 1554 1555 1555 1556 1556 1557 1558 1558 1559 1560 1560 1561 1561 1561 1562 1562 1563 1563 1564 1564 1564 1565 1565 1565 1565 1566 1566 1566 1566 1565 1565 1565 1565 1565 1565 1565 1566 1566 1566 1567 1567 1568 1568 1568 1568 1567 1567 1566 1566 1566 1566 1567 1567 1567 1567 1567 1568 1568 1568 1568 1568 1568 1568 1568 1568 1568 1568 1568 1568 1568 1568 1568
1538 1540 1541 1543 1545 1546 1548 1549 1550 1551 1551 1552 1553 1554 1555 1556 1556 1557 1558 1558 1559 1559 1560 1561 1561 1562 1562 1562 1562 1563 1564 1564 1564 1565 1565 1565 1566 1566 1566 1566 1566 1566 1566 1565 1565 1565 1565 1565 1566 1566 1566 1567 1568 1568 1569 1569 1569 1569 1568 1568 1568 1567 1567 1568 1568 1568 1568 1569 1569 1569 1569 1569 1569 1569 1569 1569 1569 1569 1569 1569 1569 1569 1568 1568 1568
1538 1540 1541 1543 1545 1546 1548 1549 1550 1551 1551 1553 1554 1555 1556 1556 1557 1557 1558 1559 1559 1560 1561 1561 1562 1562 1563 1563 1563 1564 1564 1565 1565 1565 1566 1566 1566 1566 1566 1566 1566 1566 1566 1566 1566 1566 1566 1566 1566 1567 1567 1568 1568 1569 1569 1569 1569 1569 1569 1569 1569 1569 1569 1569 1569 1569 1569 1570 1570 1570 1570 1570 1570 1570 1570 1570 1570 1570 1570 1569 1569 1569 1569 1568 1568
1539 1541 1542 1544 1546 1547 1548 1549 1550 1551 1552 1553 1554 1555 1556 1557 1557 1558 1558 1559 1559 1560 1561 1562 1562 1563 1563 1564 1564 1564 1564 1565 1566 1566 1566 1567 1567 1566 1566 1566 1566 1566 1566 1566 1566 1566 1566 1566 1567 1567 1567 1568 1569 1570 1570 1570 1570 1570 1570 1570 1570 1570 1570 1570 1570 1570 1570 1570 1570 1571 1571 1570 1570 1570 1570 1570 1570 1570 1570 1570 1569 1569 1569 1569 1568
1539 1541 1542 1544 1546 1547 1548 1549 1550 1551 1553 1553 1555 1556 1557 1557 1558 1558 1559 1559 1560 1561 1562 1562 1563 1563 1564 1564 1564 1564 1565 1565 1566 1567 1567 1567 1567 1567 1567 1567 1567 1567 1567 1567 1567 1567 1567 1567 1567 1567 1567 1568 1569 1570 1571 1571 1571 1571 1571 1571 1571 1571 1571 1571 1571 1571 1571 1571 1571 1571 1571 1571 1571 1571 1571 1570 1570 1570 1570 1569 1569 1569 1569 1568 1568
1540 1541 1543 1544 1546 1547 1548 1549 1550 1551 1552 1554 1555 1556 1557 1557 1558 1558 1559 1560 1560 1561 1562 1563 1563 1564 1564 1564 1565 1565 1565 1566 1566 1567 1567 1567 1567 1567 1567 1567 1567 1567 1568 1567 1567 1567 1567 1567 1567 1567 1568 1569 1569 1570 1571 1571 1571 1572 1571 1571 1571 1571 1571 1572 1572 1572 1572 1572 1572 1572 1572 1571 1571 1571 1571 1570 1570 1570 1570 1569 1569 1569 1568 1568 1568
1540 1542 1543 1544 1546 1547 1548 1549 1550 1551 1552 1553 1555 1556 1556 1557 1558 1559 1559 1560 1560 1561 1562 1563 1564 1564 1564 1565 1565 1566 1566 1566 1566 1567 1567 1567 1567 1568 1568 1568 1568 1568 1568 1568 1567 1567 1568 1568 1568 1568 1568 1569 1570 1570 1571 1572 1572 1572 1572 1572 1572 1572 1572 1572 1572 1572 1572 1572 1572 1572 1572 1572 1571 1571 1571 1570 1570 1570 1569 1569 1569 1569 1568 1568 1568
1540 1542 1543 1545 1546 1547 1548 1549 1550 1551 1552 1553 1554 1555 1556 1557 1558 1559 1559 1560 1561 1561 1562 1563 1564 1564 1565 1565 1566 1566 1566 1566 1566 1567 1567 1567 1568 1568 1568 1568 1568 1568 1568 1568 1568 1568 1568 1568 1568 1569 1569 1569 1570 1571 1571 1572 1572 1572 1572 1572 1572 1572 1572 1572 1572 1573 1573 1572 1572 1572 1572 1572 1571 1571 1571 1570 1570 1569 1569 1569 1569 1568 1568 1568 1567
1541 1542 1543 1545 1546 1547 1548 1549 1550 1551 1552 1553 1554 1556 1557 1557 1558 1559 1559 1560 1561 1562 1562 1563 1564 1565 1565 1565 1565 1566 1566 1566 1567 1567 1567 1567 1568 1568 1568 1568 1568 1568 1568 1568 1568 1568 1568 1568 1569 1569 1569 1570 1570 1571 1572 1572 1572 1572 1572 1572 1572 1572 1572 1572 1572 1572 1572 1572 1572 1572 1572 1571 1571 1571 1570 1570 1570 1569 1569 1568 1568 1568 1567 1567 1567
1541 1543 1544 1545 1546 1547 1547 1548 1549 1551 1552 1553 1555 1556 1557 1558 1558 1559 1559 1560 1561 1562 1563 1563 1564 1565 1565 1565 1565 1566 1566 1566 1567 1567 1567 1568 1568 1568 1568 1568 1569 1569 1569 1569 1568 1568 1569 1569 1569 1569 1570 1570 1570 1571 1572 1572 1572 1573 1573 1573 1572 1572 1572 1572 1572 1572 1572 1572 1572 1572 1571 1571 1571 1570 1570 1570 1569 1569 1568 1568 1567 1567 1566 1566 1566
1541 1543 1544 1545 1546 1547 1547 1549 1550 1551 1553 1554 1555 1556 1557 1558 1558 1559 1559 1560 1561 1562 1562 1563 1564 1564 1565 1565 1566 1566 1566 1566 1567 1567 1567 1568 1568 1568 1568 1568 1568 1569 1569 1569 1569 1569 1569 1569 1569 1569 1570 1570 1571 1571 1572 1572 1572 1572 1572 1572 1573 1573 1572 1572 1572 1572 1572 1572 1572 1571 1571 1571 1570 1570 1570 1569 1569 1569 1568 1567 1567 1566 1566 1565 1565
1542 1543 1544 1545 1546 1547 1548 1549 1551 1552 1553 1554 1555 1556 1557 1558 1558 1559 1560 1560 1561 1562 1562 1563 1564 1564 1565 1566 1566 1566 1567 1567 1567 1567 1568 1568 1568 1568 1568 1568 1568 1568 1569 1569 1569 1569 1569 1569 1569 1569 1570 1570 1570 1571 1571 1572 1572 1572 1572 1572 1573 1573 1572 1572 1572 1572 1572 1572 1572 1571 1571 1570 1570 1570 1569 1569 1569 1568 1568 1567 1566 1566 1565 1564 1564
1542 1543 1544 1545 1546 1547 1548 1550 1551 1552 1553 1554 1555 1556 1557 1558 1559 1559 1560 1560 1561 1562 1563 1563 1564 1565 1565 1566 1567 1567 1567 1567 1568 1568 1569 1569 1568 1568 1568 1568 1568 1568 1568 1568 1568 1569 1569 1569 1569 1569 1570 1570 1570 1571 1571 1572 1572 1572 1572 1572 1573 1573 1573 1573 1573 1572 1572 1572 1571 1571 1571 1570 1570 1569 1569 1569 1568 1568 1567 1567 1566 1565 1564 1564 1563
1543 1544 1545 1546 1547 1548 1549 1550 1551 1552 1553 1554 1555 1556 1557 1558 1559 1559 1560 1561 1561 1562 1563 1564 1564 1565 1566 1566 1567 1567 1567 1568 1568 1568 1569 1569 1569 1569 1568 1568 1568 1568 1568 1568 1568 1569 1569 1569 1569 1569 1569 1570 1570 1570 1571 1571 1571 1572 1572 1572 1572 1573 1573 1573 1573 1572 1572 1571 1571 1571 1570 1570 1569 1569 1568 1568 1568 1567 1567 1566 1565 1565 1564 1563 1562
1543 1544 1545 1546 1547 1549 1550 1551 1552 1553 1554 1554 1555 1556 1558 1558 1559 1560 1560 1561 1562 1563 1563 1564 1564 1565 1566 1566 1567 1567 1568 1568 1568 1568 1568 1568 1568 1569 1568 1568 1568 1568 1568 1568 1568 1568 1568 1569 1569 1569 1569 1569 1570 1570 1570 1570 1571 1571 1571 1572 1572 1572 1572 1573 1573 1572 1572 1571 1571 1570 1570 1569 1569 1568 1568 1567 1567 1567 1566 1565 1564 1564 1563 1562 1561
1543 1544 1545 1546 1548 1549 1550 1552 1552 1553 1554 1555 1556 1557 1558 1559 1560 1560 1561 1562 1563 1563 1564 1564 1565 1565 1566 1566 1567 1567 1567 1567 1568 1568 1568 1568 1568 1568 1568 1568 1568 1568 1568 1567 1568 1568 1568 1568 1569 1569 1569 1569 1569 1570 1570 1570 1570 1570 1571 1571 1571 1571 1572 1572 1572 1572 1572 1571 1571 1570 1569 1569 1569 1568 1567 1566 1566 1565 1565 1564 1564 1563 1562 1561 1561
1543 1544 1546 1547 1548 1550 1551 1552 1553 1554 1555 1556 1557 1558 1559 1559 1560 1561 1562 1562 1563 1564 1564 1564 1565 1565 1566 1566 1566 1567 1567 1567 1567 1567 1567 1568 1568 1568 1568 1568 1568 1568 1568 1568 1567 1568 1568 1568 1568 1569 1569 1569 1569 1569 1569 1569 1569 1569 1570 1570 1570 1570 1570 1571 1571 1571 1571 1570 1570 1570 1569 1569 1568 1567 1567 1566 1565 1564 1564 1563 1563 1562 1561 1561 1560
1544 1546 1547 1548 1549 1550 1552 1553 1554 1555 1556 1557 1558 1558 1559 1560 1561 1561 1562 1563 1563 1564 1564 1564 1565 1565 1565 1566 1566 1566 1566 1566 1566 1566 1567 1567 1567 1567 1567 1567 1567 1567 1567 1568 1567 1567 1568 1568 1568 1568 1569 1569 1569 1568 1568 1568 1568 1568 1568 1568 1569 1569 1569 1569 1569 1569 1569 1569 1569 1568 1568 1568 1567 1567 1566 1565 1564 1563 1563 1562 1561 1561 1560 1560 1559
1545 1546 1548 1549 1550 1551 1552 1554 1555 1556 1557 1557 1558 1559 1560 1560 1561 1562 1562 1563 1563 1564 1564 1565 1565 1565 1565 1566 1566 1566 1566 1566 1566 1566 1566 1566 1566 1566 1566 1566 1567 1567 1567 1567 1567 1567 1567 1567 1567 1568 1568 1568 1568 1567 1567 1567 1567 1567 1567 1567 1567 1567 1567 1567 1567 1567 1567 1567 1567 1567 1566 1566 1566 1565 1565 1564 1563 1562 1562 1561 1560 1560 1559 1559 1558
1545 1547 1548 1550 1551 1552 1554 1555 1556 1557 1557 1558 1559 1559 1560 1561 1561 1562 1562 1563 1563 1564 1564 1565 1565 1565 1565 1565 1565 1565 1565 1565 1565 1565 1565 1565 1566 1566 1566 1566 1566 1566 1567 1567 1566 1566 1566 1566 1566 1566 1566 1567 1567 1566 1566 1566 1566 1566 1565 1565 1565 1565 1565 1565 1565 1565 1565 1565 1565 1565 1565 1564 1564 1564 1563 1563 1562 1561 1561 1560 1559 1559 1558 1558 1557
1546 1547 1549 1550 1552 1553 1555 1556 1556 1557 1558 1558 1559 1559 1560 1561 1561 1562 1562 1563 1563 1564 1564 1564 1565 1565 1565 1565 1565 1565 1565 1565 1565 1565 1565 1565 1565 1565 1565 1566 1566 1566 1566 1566 1566 1566 1566 1565 1565 1565 1565 1565 1565 1565 1565 1564 1564 1564 1564 1564 1564 1563 1563 1562 1562 1562 1562 1562 1563 1563 1563 1562 1562 1562 1561 1561 1561 1560 1559 1559 1558 1558 1557 1557 1556
1546 1548 1549 1551 1552 1554 1555 1556 1557 1558 1558 1559 1559 1559 1560 1561 1561 1562 1562 1563 1563 1564 1564 1564 1565 1565 1565 1565 1565 1565 1565 1564 1564 1564 1565 1565 1565 1565 1565 1565 1565 1565 1565 1565 1565 1565 1565 1565 1564 1564 1564 1564 1564 1564 1563 1563 1563 1562 1562 1562 1562 1562 1561 1560 1560 1560 1559 1559 1560 1560 1560 1560 1560 1560 1560 1559 1559 1559 1558 1557 1557 1556 1556 1555 1555
1547 1548 1550 1551 1553 1554 1555 1556 1557 1558 1558 1559 1559 1560 1560 1561 1562 1563 1563 1563 1564 1564 1564 1565 1565 1565 1565 1565 1565 1565 1565 1565 1564 1564 1564 1565 1565 1565 1565 1565 1565 1565 1565 1565 1564 1564 1564 1564 1563 1563 1563 1562 1562 1562 1562 1561 1560 1560 1560 1559 1559 1559 1559 1558 1558 1557 1557 1557 1557 1557 1557 1557 1557 1557 1558 1557 1557 1557 1556 1556 1555 1555 1554 1554 1554
1548 1549 1550 1552 1553 1554 1555 1556 1557 1558 1558 1559 1559 1560 1561 1562 1562 1563 1563 1563 1564 1564 1564 1564 1565 1565 1565 1565 1565 1565 1565 1565 1565 1564 1564 1565 1565 1565 1565 1564 1564 1564 1564 1564 1564 1564 1563 1563 1562 1562 1561 1561 1561 1560 1560 1559 1558 1558 1557 1557 1557 1556 1556 1556 1555 1555 1554 1554 1553 1554 1554 1554 1554 1554 1555 1555 1555 1555 1555 1554 1554 1553 1553 1552 1552
1548 1550 1551 1552 1553 1554 1556 1556 1557 1558 1559 1559 1560 1561 1561 1562 1563 1563 1563 1563 1564 1564 1564 1564 1564 1565 1565 1565 1565 1565 1565 1565 1565 1565 1565 1565 1565 1565 1565 1564 1564 1564 1564 1564 1563 1563 1562 1562 1561 1561 1560 1560 1559 1559 1558 1558 1557 1556 1555 1555 1554 1554 1553 1553 1552 1551 1551 1551 1550 1550 1551 1551 1551 1551 1552 1552 1552 1552 1552 1552 1552 1552 1551 1551 1551
1548 1550 1551 1552 1553 1554 1555 1556 1557 1558 1559 1560 1561 1562 1562 1563 1563 1563 1563 1563 1564 1564 1564 1564 1564 1564 1564 1565 1565 1565 1565 1565 1565 1565 1565 1565 1565 1565 1565 1564 1564 1564 1564 1563 1563 1562 1562 1561 1561 1560 1559 1558 1558 1557 1557 1556 1555 1554 1553 1552 1552 1551 1550 1550 1549 1548 1547 1547 1547 1547 1547 1548 1548 1548 1548 1549 1549 1550 1550 1550 1550 1550 1550 1549 1549
1548 1549 1550 1551 1552 1553 1555 1556 1558 1559 1560 1561 1561 1562 1562 1563 1563 1563 1563 1563 1563 1564 1564 1564 1564 1564 1564 1564 1565 1564 1564 1564 1564 1564 1564 1564 1564 1564 1564 1564 1564 1563 1563 1562 1562 1561 1561 1560 1559 1559 1558 1557 1557 1555 1554 1553 1552 1551 1550 1549 1549 1548 1547 1547 1546 1545 1544 1544 1544 1544 1544 1544 1544 1545 1545 1546 1546 1547 1547 1547 1548 1548 1548 1547 1547
1548 1549 1550 1551 1552 1553 1555 1557 1559 1560 1561 1562 1562 1562 1563 1563 1563 1563 1563 1563 1563 1564 1564 1564 1564 1564 1564 1564 1564 1564 1563 1564 1564 1564 1564 1564 1564 1564 1563 1563 1563 1563 1562 1562 1561 1560 1559 1559 1558 1557 1557 1556 1555 1554 1553 1551 1550 1549 1547 1546 1546 1545 1545 1544 1543 1543 1542 1541 1541 1541 1541 1541 1541 1541 1542 1543 1543 1544 1544 1544 1545 1545 1545 1545 1544
1549 1550 1550 1551 1553 1554 1556 1558 1559 1560 1561 1562 1562 1562 1563 1563 1563 1563 1564 1564 1564 1564 1564 1564 1564 1564 1564 1563 1563 1563 1562 1562 1562 1562 1562 1562 1562 1562 1562 1562 1561 1561 1561 1560 1559 1559 1558 1557 1556 1556 1555 1554 1553 1552 1551 1550 1548 1546 1545 1544 1543 1542 1542 1541 1541 1540 1540 1539 1538 1538 1538 1538 1538 1538 1538 1539 1540 1540 1541 1541 1541 1542 1542 1542 1542
1550 1550 1551 1552 1553 1555 1556 1558 1559 1560 1561 1561 1562 1562 1562 1563 1563 1563 1563 1564 1564 1564 1564 1564 1564 1564 1564 1563 1563 1562 1562 1562 1561 1561 1561 1561 1561 1560 1560 1560 1560 1560 1559 1559 1558 1557 1557 1556 1555 1554 1553 1553 1552 1551 1550 1549 1547 1546 1544 1542 1541 1540 1539 1539 1538 1537 1537 1536 1536 1535 1535 1535 1535 1535 1535 1535 1536 1537 1537 1538 1538 1539 1539 1540 1540
1551 1551 1552 1553 1554 1556 1557 1558 1559 1560 1561 1561 1562 1562 1562 1562 1562 1562 1563 1563 1563 1563 1564 1564 1564 1564 1563 1563 1563 1562 1562 1562 1562 1561 1561 1560 1560 1560 1560 1559 1559 1559 1558 1558 1557 1556 1555 1555 1554 1553 1552 1552 1551 1550 1550 1549 1547 1545 1544 1542 1540 1539 1538 1537 1536 1535 1534 1534 1533 1533 1532 1532 1532 1532 1532 1532 1532 1533 1533 1534 1535 1536 1537 1537 1538
1552 1553 1553 1554 1555 1556 1557 1559 1559 1560 1561 1561 1562 1562 1562 1562 1562 1562 1563 1563 1563 1563 1563 1563 1563 1563 1563 1563 1562 1562 1562 1561 1561 1561 1560 1560 1560 1559 1559 1558 1558 1558 1557 1557 1556 1555 1554 1553 1553 1552 1551 1551 1550 1549 1549 1548 1546 1545 1544 1542 1540 1539 1537 1536 1535 1533 1532 1531 1531 1530 1530 1529 1529 1529 1529 1529 1529 1529 1530 1531 1532 1534 1535 1535 1535
1552 1553 1554 1555 1556 1557 1558 1559 1560 1560 1561 1561 1561 1562 1562 1562 1562 1562 1563 1563 1563 1563 1562 1562 1562 1562 1562 1562 1561 1561 1561 1561 1560 1560 1559 1559 1559 1558 1558 1557 1557 1556 1556 1556 1555 1554 1553 1553 1552 1551 1550 1550 1549 1548 1547 1547 1546 1545 1544 1542 1541 1539 1537 1536 1534 1531 1530 1530 1529 1528 1528 1527 1527 1527 1526 1526 1526 1526 1526 1527 1528 1529 1530 1531 1531
1553 1554 1555 1556 1557 1558 1559 1559 1560 1560 1561 1561 1561 1561 1562 1562 1562 1562 1562 1562 1562 1562 1561 1561 1561 1562 1562 1561 1561 1561 1560 1560 1560 1559 1558 1558 1558 1557 1557 1556 1556 1555 1554 1554 1553 1553 1552 1551 1551 1550 1549 1549 1548 1547 1546 1545 1545 1544 1543 1542 1541 1540 1537 1535 1534 1530 1528 1528 1527 1526 1526 1525 1525 1524 1524 1523 1523 1524 1524 1524 1524 1525 1526 1527 1528
1554 1554 1555 1557 1557 1558 1559 1559 1560 1560 1561 1561 1561 1561 1561 1561 1561 1561 1561 1561 1561 1560 1560 1560 1561 1561 1561 1560 1560 1560 1559 1559 1558 1558 1558 1557 1557 1556 1556 1555 1554 1554 1553 1552 1551 1551 1550 1549 1549 1548 1548 1547 1547 1546 1544 1544 1543 1542 1542 1541 1540 1539 1537 1535 1534 1531 1527 1526 1525 1525 1524 1523 1522 1521 1521 1521 1521 1521 1521 1521 1521 1521 1523 1524 1524
1555 1555 1556 1557 1557 1558 1559 1559 1560 1560 1561 1561 1561 1561 1560 1560 1560 1560 1560 1560 1560 1560 1560 1560 1560 1560 1560 1560 1559 1558 1558 1557 1557 1557 1556 1556 1556 1555 1554 1553 1553 1552 1551 1551 1550 1549 1548 1547 1546 1545 1545 1545 1545 1544 1543 1542 1541 1540 1540 1539 1537 1537 1536 1534 1533 1531 1528 1524 1521 1522 1521 1520 1520 1519 1518 1517 1517 1517 1517 1517 1517 1518 1519 1520 1520
1555 1556 1556 1556 1557 1557 1558 1559 1559 1560 1560 1560 1560 1560 1560 1560 1560 1559 1559 1559 1559 1559 1559 1559 1559 1559 1558 1558 1558 1557 1556 1556 1555 1555 1555 1555 1554 1553 1552 1551 1551 1550 1549 1549 1548 1547 1546 1545 1544 1543 1542 1542 1542 1541 1541 1540 1539 1538 1537 1537 1535 1534 1533 1532 1531 1530 1528 1524 1520 1519 1519 1518 1516 1515 1515 1514 1514 1514 1513 1514 1514 1514 1515 1516 1517
1555 1556 1556 1557 1557 1557 1558 1558 1558 1559 1559 1559 1559 1559 1559 1559 1559 1558 1558 1558 1558 1558 1558 1558 1558 1557 1557 1556 1556 1555 1555 1554 1554 1554 1553 1553 1552 1551 1550 1550 1549 1548 1547 1547 1546 1545 1544 1543 1542 1541 1540 1539 1539 1539 1538 1537 1536 1535 1535 1534 1533 1532 1531 1530 1529 1527 1526 1524 1520 1517 1517 1516 1513 1511 1511 1511 1510 1510 1509 1509 1510 1510 1512 1513 1514
1555 1556 1556 1556 1556 1557 1557 1557 1558 1558 1558 1558 1558 1558 1558 1558 1558 1557 1557 1557 1557 1557 1557 1557 1556 1556 1556 1555 1555 1554 1554 1554 1553 1553 1552 1552 1551 1550 1549 1548 1547 1546 1546 1545 1544 1543 1542 1541 1540 1539 1538 1537 1536 1536 1535 1534 1533 1532 1532 1531 1531 1530 1529 1528 1526 1525 1524 1522 1519 1515 1514 1515 1512 1509 1508 1508 1507 1506 1505 1505 1506 1507 1508 1509 1510